TimeMST,TemperatureF,Dew PointF,Humidity,Sea Level PressureIn,VisibilityMPH,Wind Direction,Wind SpeedMPH,Gust SpeedMPH,PrecipitationIn,Events,Conditions,WindDirDegrees,DateUTC
12:15 AM,49.1,17.6,29,30.09,10.0,South,6.9,-,N/A,,Clear,180,2013-03-07 07:15:00
12:35 AM,48.9,17.6,29,30.09,10.0,South,6.9,-,N/A,,Clear,190,2013-03-07 07:35:00
12:55 AM,48.6,12.9,24,30.09,10.0,SW,4.6,-,N/A,,Clear,220,2013-03-07 07:55:00
1:15 AM,47.7,13.8,26,30.10,10.0,SW,6.9,-,N/A,,Clear,220,2013-03-07 08:15:00
1:35 AM,47.3,14.4,27,30.10,10.0,SSW,6.9,-,N/A,,Clear,210,2013-03-07 08:35:00
1:55 AM,47.8,13.3,25,30.09,10.0,SW,6.9,-,N/A,,Clear,230,2013-03-07 08:55:00
2:15 AM,48.4,12.2,23,30.09,10.0,Calm,Calm,-,N/A,,Clear,0,2013-03-07 09:15:00
2:35 AM,47.5,14.4,27,30.09,10.0,Calm,Calm,-,N/A,,Clear,0,2013-03-07 09:35:00
2:55 AM,47.7,13.6,26,30.09,10.0,Calm,Calm,-,N/A,,Clear,0,2013-03-07 09:55:00
3:15 AM,47.5,13.8,26,30.08,10.0,Calm,Calm,-,N/A,,Clear,0,2013-03-07 10:15:00
3:35 AM,45.1,14.5,29,30.09,10.0,ESE,3.5,-,N/A,,Clear,120,2013-03-07 10:35:00
3:55 AM,43.2,15.4,33,30.09,10.0,Calm,Calm,-,N/A,,Clear,0,2013-03-07 10:55:00
4:15 AM,45.3,16.5,32,30.09,10.0,Calm,Calm,-,N/A,,Clear,0,2013-03-07 11:15:00
4:35 AM,46.8,14.4,27,30.09,10.0,South,4.6,-,N/A,,Clear,180,2013-03-07 11:35:00
4:55 AM,45.5,15.4,30,30.09,10.0,South,4.6,-,N/A,,Clear,170,2013-03-07 11:55:00
5:15 AM,44.8,14.9,30,30.09,10.0,South,3.5,-,N/A,,Clear,190,2013-03-07 12:15:00
5:35 AM,45.3,13.5,28,30.10,10.0,West,5.8,-,N/A,,Clear,260,2013-03-07 12:35:00
5:55 AM,45.3,12.7,27,30.10,10.0,Calm,Calm,-,N/A,,Clear,0,2013-03-07 12:55:00
6:15 AM,46.2,12.4,26,30.11,10.0,Calm,Calm,-,N/A,,Clear,0,2013-03-07 13:15:00
6:35 AM,45.3,12.6,27,30.11,10.0,Calm,Calm,-,N/A,,Clear,0,2013-03-07 13:35:00
6:55 AM,45.0,13.1,28,30.12,10.0,Calm,Calm,-,N/A,,Clear,0,2013-03-07 13:55:00
7:15 AM,42.8,13.8,31,30.12,10.0,East,3.5,-,N/A,,Clear,80,2013-03-07 14:15:00
7:35 AM,42.3,16.2,35,30.13,10.0,Calm,Calm,-,N/A,,Clear,0,2013-03-07 14:35:00
7:55 AM,44.6,15.6,31,30.13,10.0,Calm,Calm,-,N/A,,Clear,0,2013-03-07 14:55:00
8:15 AM,46.6,15.6,29,30.13,10.0,Calm,Calm,-,N/A,,Clear,0,2013-03-07 15:15:00
8:35 AM,48.2,16.5,28,30.13,10.0,ENE,3.5,-,N/A,,Clear,70,2013-03-07 15:35:00
8:55 AM,49.3,17.4,28,30.13,10.0,Calm,Calm,-,N/A,,Clear,0,2013-03-07 15:55:00
9:15 AM,48.2,18.1,30,30.13,10.0,East,8.1,-,N/A,,Clear,80,2013-03-07 16:15:00
9:35 AM,46.9,17.2,31,30.13,10.0,East,4.6,-,N/A,,Clear,80,2013-03-07 16:35:00
9:55 AM,49.8,17.4,28,30.13,10.0,ENE,4.6,-,N/A,,Clear,70,2013-03-07 16:55:00
10:15 AM,50.9,16.9,26,30.13,10.0,East,3.5,-,N/A,,Clear,90,2013-03-07 17:15:00
10:35 AM,53.2,16.9,24,30.12,10.0,ENE,4.6,-,N/A,,Clear,60,2013-03-07 17:35:00
10:55 AM,55.0,16.9,22,30.12,10.0,ESE,4.6,-,N/A,,Clear,120,2013-03-07 17:55:00
11:15 AM,56.8,16.7,21,30.11,10.0,SE,3.5,-,N/A,,Clear,130,2013-03-07 18:15:00
11:35 AM,57.4,16.3,20,30.11,10.0,East,9.2,-,N/A,,Clear,80,2013-03-07 18:35:00
11:55 AM,58.5,12.7,17,30.10,10.0,South,6.9,-,N/A,,Clear,180,2013-03-07 18:55:00
12:15 PM,59.9,11.8,15,30.09,10.0,South,11.5,-,N/A,,Clear,170,2013-03-07 19:15:00
12:35 PM,59.9,11.3,15,30.08,10.0,South,10.4,19.6,N/A,,Clear,180,2013-03-07 19:35:00
12:55 PM,60.4,12.0,15,30.07,10.0,SSE,9.2,17.3,N/A,,Clear,160,2013-03-07 19:55:00
1:15 PM,60.8,11.3,14,30.06,10.0,South,13.8,18.4,N/A,,Clear,170,2013-03-07 20:15:00
1:35 PM,61.0,10.0,13,30.05,10.0,SSE,11.5,19.6,N/A,,Clear,160,2013-03-07 20:35:00
1:55 PM,61.0,8.4,13,30.04,10.0,SE,11.5,19.6,N/A,,Clear,130,2013-03-07 20:55:00
2:15 PM,61.0,8.4,13,30.03,5.0,SSE,21.9,29.9,N/A,,Haze,150,2013-03-07 21:15:00
2:35 PM,61.3,8.6,12,30.03,10.0,South,15.0,28.8,N/A,,Clear,170,2013-03-07 21:35:00
2:55 PM,60.8,8.1,12,30.02,10.0,SSE,18.4,24.2,N/A,,Clear,160,2013-03-07 21:55:00
3:15 PM,60.8,7.7,12,30.03,10.0,South,19.6,25.3,N/A,,Clear,190,2013-03-07 22:15:00
3:35 PM,60.3,6.6,12,30.02,7.0,SSE,20.7,27.6,N/A,,Clear,160,2013-03-07 22:35:00
3:55 PM,60.3,6.3,12,30.03,10.0,SSE,13.8,21.9,N/A,,Clear,160,2013-03-07 22:55:00
4:15 PM,59.5,5.7,12,30.02,10.0,South,16.1,24.2,N/A,,Clear,170,2013-03-07 23:15:00
4:35 PM,59.7,5.5,12,30.02,10.0,SSE,12.7,21.9,N/A,,Clear,150,2013-03-07 23:35:00
4:55 PM,59.4,6.4,12,30.03,10.0,South,16.1,-,N/A,,Clear,170,2013-03-07 23:55:00
6:35 PM,55.8,10.2,16,30.03,10.0,SSW,5.8,-,N/A,,Clear,200,2013-03-08 01:35:00
6:55 PM,54.7,10.4,17,30.04,10.0,SW,6.9,-,N/A,,Clear,230,2013-03-08 01:55:00
7:15 PM,53.6,11.8,19,30.04,10.0,WSW,6.9,-,N/A,,Clear,250,2013-03-08 02:15:00
7:35 PM,53.4,12.6,20,30.03,10.0,West,8.1,-,N/A,,Clear,260,2013-03-08 02:35:00
7:55 PM,53.8,12.2,19,30.03,10.0,West,8.1,-,N/A,,Clear,270,2013-03-08 02:55:00
8:15 PM,53.6,12.2,19,30.03,10.0,West,6.9,-,N/A,,Clear,270,2013-03-08 03:15:00
8:35 PM,54.0,13.1,20,30.03,10.0,WSW,6.9,-,N/A,,Mostly Cloudy,240,2013-03-08 03:35:00
8:55 PM,53.4,14.0,21,30.04,10.0,SW,6.9,-,N/A,,Scattered Clouds,220,2013-03-08 03:55:00
9:15 PM,54.0,14.0,21,30.05,10.0,SSW,8.1,-,N/A,,Mostly Cloudy,210,2013-03-08 04:15:00
9:35 PM,54.5,15.4,21,30.04,10.0,SSW,8.1,-,N/A,,Overcast,210,2013-03-08 04:35:00
9:55 PM,54.5,14.9,21,30.04,10.0,South,15.0,21.9,N/A,,Mostly Cloudy,190,2013-03-08 04:55:00
10:15 PM,54.9,15.6,21,30.03,10.0,SSW,10.4,20.7,N/A,,Mostly Cloudy,200,2013-03-08 05:15:00
10:35 PM,53.8,16.5,23,30.03,10.0,SW,6.9,-,N/A,,Scattered Clouds,220,2013-03-08 05:35:00
10:55 PM,53.2,17.2,24,30.02,10.0,SSW,4.6,-,N/A,,Scattered Clouds,210,2013-03-08 05:55:00
11:15 PM,52.0,17.1,25,30.02,10.0,Calm,Calm,-,N/A,,Clear,0,2013-03-08 06:15:00
11:35 PM,51.6,15.3,24,30.03,10.0,SW,8.1,-,N/A,,Clear,220,2013-03-08 06:35:00
11:55 PM,50.9,14.9,24,30.03,10.0,SW,5.8,-,N/A,,Clear,230,2013-03-08 06:55:00